| time (UTC) | temp C | wind direction | speed KPH | gust KPH | rain 1hr cm | rain 24hr cm | rain mn cm | humidity % | barometer mb |
| 20260504232012 | 13 | 141 | 1.6 | 9.7 | 0.00 | 0.00 | 0.00 | 61 | 1004.9 |
| 20260504231522 | 14 | 107 | 1.6 | 11.3 | 0.00 | 0.00 | 0.00 | 59 | 1004.7 |
| 20260504231006 | 15 | 141 | 4.8 | 11.3 | 0.00 | 0.00 | 0.00 | 56 | 1004.6 |
| 20260504230510 | 16 | 119 | 3.2 | 11.3 | 0.00 | 0.00 | 0.00 | 51 | 1004.6 |
| 20260504230008 | 18 | 135 | 3.2 | 9.7 | 0.00 | 0.00 | 0.00 | 47 | 1004.6 |
| 20260504225508 | 19 | 140 | 1.6 | 12.9 | 0.00 | 0.00 | 0.00 | 38 | 1004.5 |
| 20260504225007 | 19 | 232 | 3.2 | 12.9 | 0.00 | 0.00 | 0.00 | 38 | 1004.5 |
| 20260504224508 | 19 | 263 | 3.2 | 12.9 | 0.00 | 0.00 | 0.00 | 38 | 1004.4 |
| 20260504224009 | 19 | 251 | 3.2 | 17.7 | 0.00 | 0.00 | 0.00 | 35 | 1004.3 |
| 20260504223512 | 19 | 221 | 3.2 | 17.7 | 0.00 | 0.00 | 0.00 | 36 | 1004.2 |
| 20260504223009 | 19 | 248 | 1.6 | 17.7 | 0.00 | 0.00 | 0.00 | 37 | 1004.2 |
| 20260504222508 | 20 | 219 | 6.4 | 17.7 | 0.00 | 0.00 | 0.00 | 37 | 1004.2 |
| 20260504222010 | 20 | 214 | 1.6 | 11.3 | 0.00 | 0.00 | 0.00 | 36 | 1004.2 |
| 20260504221510 | 20 | 219 | 3.2 | 11.3 | 0.00 | 0.00 | 0.00 | 36 | 1004.2 |
| 20260504221009 | 20 | 236 | 1.6 | 12.9 | 0.00 | 0.00 | 0.00 | 36 | 1004.2 |
| 20260504220504 | 20 | 216 | 1.6 | 12.9 | 0.00 | 0.00 | 0.00 | 35 | 1004.2 |
| 20260504220018 | 20 | 248 | 3.2 | 17.7 | 0.00 | 0.00 | 0.00 | 36 | 1004.2 |
| 20260504215507 | 20 | 255 | 11.3 | 17.7 | 0.00 | 0.00 | 0.00 | 34 | 1004.2 |
| 20260504215004 | 20 | 208 | 1.6 | 16.1 | 0.00 | 0.00 | 0.00 | 34 | 1004.2 |
| 20260504214515 | 20 | 292 | 6.4 | 22.5 | 0.00 | 0.00 | 0.00 | 35 | 1004.1 |
| 20260504214010 | 20 | 286 | 11.3 | 22.5 | 0.00 | 0.00 | 0.00 | 34 | 1004.2 |
| 20260504213505 | 20 | 281 | 9.7 | 24.1 | 0.00 | 0.00 | 0.00 | 35 | 1004.2 |
| 20260504213014 | 20 | 213 | 6.4 | 24.1 | 0.00 | 0.00 | 0.00 | 35 | 1004.1 |
| 20260504212509 | 20 | 244 | 4.8 | 24.1 | 0.00 | 0.00 | 0.00 | 36 | 1004.0 |
| 20260504212008 | 21 | 257 | 11.3 | 24.1 | 0.00 | 0.00 | 0.00 | 34 | 1004.2 |
| 20260504211518 | 21 | 227 | 4.8 | 12.9 | 0.00 | 0.00 | 0.00 | 35 | 1004.1 |
| 20260504211010 | 21 | 275 | 3.2 | 19.3 | 0.00 | 0.00 | 0.00 | 35 | 1004.0 |
| 20260504210507 | 21 | 262 | 4.8 | 24.1 | 0.00 | 0.00 | 0.00 | 35 | 1004.0 |
| 20260504210020 | 21 | 260 | 11.3 | 24.1 | 0.00 | 0.00 | 0.00 | 36 | 1004.0 |
| 20260504205510 | 20 | 255 | 4.8 | 14.5 | 0.00 | 0.00 | 0.00 | 38 | 1004.1 |
| 20260504205010 | 20 | 254 | 3.2 | 20.9 | 0.00 | 0.00 | 0.00 | 38 | 1004.1 |
| 20260504204517 | 20 | 236 | 1.6 | 20.9 | 0.00 | 0.00 | 0.00 | 37 | 1004.0 |
| 20260504204006 | 20 | 236 | 4.8 | 20.9 | 0.00 | 0.00 | 0.00 | 36 | 1004.1 |
| 20260504203503 | 21 | 200 | 4.8 | 14.5 | 0.00 | 0.00 | 0.00 | 37 | 1004.1 |
| 20260504203028 | 20 | 269 | 4.8 | 22.5 | 0.00 | 0.00 | 0.00 | 37 | 1004.1 |
| 20260504202513 | 20 | 242 | 4.8 | 22.5 | 0.00 | 0.00 | 0.00 | 37 | 1004.1 |
| 20260504202006 | 20 | 229 | 8.0 | 20.9 | 0.00 | 0.00 | 0.00 | 37 | 1004.2 |
| 20260504201521 | 20 | 232 | 6.4 | 20.9 | 0.00 | 0.00 | 0.00 | 38 | 1004.3 |
| 20260504201013 | 20 | 252 | 6.4 | 19.3 | 0.00 | 0.00 | 0.00 | 38 | 1004.4 |
| 20260504200509 | 19 | 236 | 9.7 | 29.0 | 0.00 | 0.00 | 0.00 | 38 | 1004.4 |
| 20260504200024 | 20 | 265 | 6.4 | 29.0 | 0.00 | 0.00 | 0.00 | 37 | 1004.4 |
| 20260504195510 | 20 | 266 | 6.4 | 25.7 | 0.00 | 0.00 | 0.00 | 36 | 1004.4 |
| 20260504195008 | 20 | 309 | 6.4 | 29.0 | 0.00 | 0.00 | 0.00 | 36 | 1004.5 |
| 20260504194533 | 20 | 247 | 8.0 | 29.0 | 0.00 | 0.00 | 0.00 | 36 | 1004.5 |
| 20260504194010 | 20 | 250 | 8.0 | 27.4 | 0.00 | 0.00 | 0.00 | 36 | 1004.5 |
| 20260504193507 | 21 | 257 | 9.7 | 19.3 | 0.00 | 0.00 | 0.00 | 37 | 1004.5 |
| 20260504193023 | 21 | 282 | 6.4 | 17.7 | 0.00 | 0.00 | 0.00 | 35 | 1004.4 |
| 20260504192506 | 21 | 187 | 1.6 | 14.5 | 0.00 | 0.00 | 0.00 | 38 | 1004.3 |
| 20260504192008 | 20 | 245 | 4.8 | 14.5 | 0.00 | 0.00 | 0.00 | 37 | 1004.3 |
| 20260504191528 | 20 | 205 | 6.4 | 14.5 | 0.00 | 0.00 | 0.00 | 40 | 1004.4 |
| 20260504191004 | 20 | 226 | 6.4 | 30.6 | 0.00 | 0.00 | 0.00 | 39 | 1004.4 |
| 20260504190508 | 20 | 53 | 4.8 | 30.6 | 0.00 | 0.00 | 0.00 | 40 | 1004.5 |
| 20260504190031 | 19 | 205 | 12.9 | 22.5 | 0.00 | 0.00 | 0.00 | 40 | 1004.5 |
| 20260504185509 | 18 | 264 | 4.8 | 9.7 | 0.00 | 0.00 | 0.00 | 42 | 1004.5 |
| 20260504185009 | 17 | 352 | 3.2 | 11.3 | 0.00 | 0.00 | 0.00 | 46 | 1004.5 |
| 20260504184533 | 17 | 179 | 1.6 | 20.9 | 0.00 | 0.00 | 0.00 | 42 | 1004.5 |
| 20260504184006 | 17 | 252 | 6.4 | 20.9 | 0.00 | 0.00 | 0.00 | 42 | 1004.6 |
| 20260504183510 | 17 | 215 | 3.2 | 16.1 | 0.00 | 0.00 | 0.00 | 40 | 1004.7 |
| 20260504183028 | 17 | 244 | 3.2 | 16.1 | 0.00 | 0.00 | 0.00 | 40 | 1004.6 |
| 20260504182506 | 17 | 225 | 4.8 | 14.5 | 0.00 | 0.00 | 0.00 | 40 | 1004.5 |
| 20260504182011 | 17 | 115 | 3.2 | 20.9 | 0.00 | 0.00 | 0.00 | 39 | 1004.5 |
| 20260504181525 | 17 | 274 | 4.8 | 22.5 | 0.00 | 0.00 | 0.00 | 39 | 1004.5 |
| 20260504181010 | 18 | 300 | 6.4 | 25.7 | 0.00 | 0.00 | 0.00 | 38 | 1004.5 |
| 20260504180508 | 18 | 246 | 8.0 | 25.7 | 0.00 | 0.00 | 0.00 | 38 | 1004.5 |
| 20260504180033 | 18 | 259 | 4.8 | 24.1 | 0.00 | 0.00 | 0.00 | 39 | 1004.5 |
| 20260504175507 | 18 | 228 | 8.0 | 20.9 | 0.00 | 0.00 | 0.00 | 39 | 1004.5 |
| 20260504175010 | 18 | 257 | 6.4 | 19.3 | 0.00 | 0.00 | 0.00 | 38 | 1004.5 |
| 20260504174528 | 18 | 230 | 6.4 | 33.8 | 0.00 | 0.00 | 0.00 | 38 | 1004.5 |
| 20260504174010 | 18 | 185 | 3.2 | 33.8 | 0.00 | 0.00 | 0.00 | 38 | 1004.4 |
| 20260504173508 | 18 | 204 | 8.0 | 24.1 | 0.00 | 0.00 | 0.00 | 38 | 1004.4 |
| 20260504173028 | 18 | 299 | 6.4 | 29.0 | 0.00 | 0.00 | 0.00 | 38 | 1004.4 |
| 20260504172508 | 18 | 207 | 8.0 | 30.6 | 0.00 | 0.00 | 0.00 | 35 | 1004.3 |
| 20260504172011 | 18 | 199 | 11.3 | 35.4 | 0.00 | 0.00 | 0.00 | 34 | 1004.3 |
| 20260504171527 | 18 | 216 | 6.4 | 35.4 | 0.00 | 0.00 | 0.00 | 34 | 1004.3 |
| 20260504171012 | 19 | 297 | 16.1 | 33.8 | 0.00 | 0.00 | 0.00 | 34 | 1004.1 |
| 20260504170511 | 19 | 238 | 12.9 | 29.0 | 0.00 | 0.00 | 0.00 | 36 | 1004.1 |
| 20260504151010 | 16 | 243 | 12.9 | 19.3 | 0.00 | 0.00 | 0.00 | 48 | 1005.5 |
| 20260504150510 | 16 | 229 | 11.3 | 19.3 | 0.00 | 0.00 | 0.00 | 49 | 1005.6 |
| 20260504141015 | 14 | 257 | 8.0 | 19.3 | 0.00 | 0.00 | 0.00 | 53 | 1006.5 |
| 20260504140506 | 14 | 214 | 9.7 | 17.7 | 0.00 | 0.00 | 0.00 | 55 | 1006.6 |
| 20260504130512 | 11 | 217 | 8.0 | 27.4 | 0.00 | 0.00 | 0.00 | 61 | 1007.1 |
| 20260504110509 | 6 | 215 | 9.7 | 19.3 | 0.00 | 0.03 | 0.00 | 65 | 1007.6 |
| 20260504100510 | 5 | 253 | 1.6 | 9.7 | 0.00 | 0.03 | 0.00 | 68 | 1007.4 |
| 20260504082008 | 3 | 268 | 3.2 | 16.1 | 0.00 | 0.03 | 0.00 | 73 | 1007.3 |
| 20260504081525 | 3 | 241 | 4.8 | 16.1 | 0.00 | 0.03 | 0.00 | 75 | 1007.3 |
| 20260504081003 | 2 | 260 | 1.6 | 12.9 | 0.00 | 0.03 | 0.00 | 75 | 1007.3 |
| 20260504080509 | 2 | 230 | 4.8 | 12.9 | 0.00 | 0.03 | 0.00 | 75 | 1007.3 |
| 20260504050514 | 0 | 240 | 0.0 | 6.4 | 0.00 | 0.03 | 0.00 | 81 | 1007.0 |
| 20260504050016 | 0 | 240 | 1.6 | 6.4 | 0.00 | 0.03 | 0.00 | 81 | 1007.0 |
| 20260504045509 | 1 | 275 | 3.2 | 9.7 | 0.00 | 0.03 | 0.00 | 80 | 1007.0 |
| 20260504045010 | 1 | 243 | 4.8 | 9.7 | 0.00 | 0.03 | 0.00 | 81 | 1007.1 |
| 20260504044519 | 1 | 244 | 3.2 | 4.8 | 0.00 | 0.03 | 0.00 | 80 | 1007.1 |
| 20260504044008 | 1 | 237 | 1.6 | 4.8 | 0.00 | 0.03 | 0.00 | 79 | 1007.1 |
| 20260504043510 | 1 | 240 | 1.6 | 4.8 | 0.00 | 0.03 | 0.00 | 79 | 1007.1 |
| 20260504043020 | 1 | 234 | 1.6 | 4.8 | 0.00 | 0.03 | 0.00 | 79 | 1007.2 |
| 20260504042507 | 1 | 238 | 3.2 | 4.8 | 0.00 | 0.03 | 0.00 | 79 | 1007.1 |
| 20260504042011 | 1 | 236 | 1.6 | 4.8 | 0.00 | 0.03 | 0.00 | 78 | 1007.1 |
| 20260504041519 | 1 | 260 | 0.0 | 3.2 | 0.00 | 0.03 | 0.00 | 78 | 1007.1 |
| 20260504041008 | 1 | 233 | 1.6 | 3.2 | 0.00 | 0.03 | 0.00 | 76 | 1007.1 |
| 20260504040511 | 2 | 236 | 0.0 | 3.2 | 0.00 | 0.05 | 0.00 | 76 | 1007.1 |
| 20260504040019 | 2 | 257 | 0.0 | 3.2 | 0.00 | 0.05 | 0.00 | 77 | 1007.0 |
| 20260504035510 | 2 | 246 | 1.6 | 3.2 | 0.00 | 0.05 | 0.05 | 75 | 1007.1 |
| 20260504035007 | 2 | 246 | 0.0 | 1.6 | 0.00 | 0.05 | 0.05 | 74 | 1007.0 |
| 20260504034535 | 2 | 245 | 0.0 | 3.2 | 0.00 | 0.05 | 0.05 | 72 | 1006.9 |
| 20260504034009 | 2 | 245 | 0.0 | 4.8 | 0.00 | 0.05 | 0.05 | 71 | 1006.9 |
| 20260504033507 | 2 | 246 | 1.6 | 4.8 | 0.00 | 0.05 | 0.05 | 71 | 1007.0 |
| 20260504033027 | 3 | 217 | 1.6 | 4.8 | 0.00 | 0.05 | 0.05 | 71 | 1007.0 |
| 20260504032510 | 3 | 222 | 0.0 | 4.8 | 0.00 | 0.05 | 0.05 | 71 | 1007.0 |
| 20260504032010 | 3 | 235 | 0.0 | 4.8 | 0.00 | 0.05 | 0.05 | 71 | 1007.0 |
| 20260504031524 | 3 | 237 | 1.6 | 4.8 | 0.00 | 0.05 | 0.05 | 72 | 1006.9 |
| 20260504031011 | 3 | 219 | 1.6 | 4.8 | 0.00 | 0.05 | 0.05 | 72 | 1006.8 |
| 20260504030510 | 3 | 217 | 1.6 | 9.7 | 0.00 | 0.05 | 0.05 | 72 | 1006.9 |
| 20260504030034 | 3 | 227 | 3.2 | 9.7 | 0.00 | 0.05 | 0.05 | 73 | 1006.9 |
| 20260504025508 | 3 | 234 | 1.6 | 4.8 | 0.00 | 0.05 | 0.05 | 71 | 1006.8 |
| 20260504025007 | 3 | 224 | 3.2 | 4.8 | 0.00 | 0.05 | 0.05 | 70 | 1006.8 |
| 20260504024523 | 3 | 225 | 1.6 | 4.8 | 0.00 | 0.05 | 0.05 | 69 | 1006.8 |
| 20260504024013 | 3 | 234 | 1.6 | 4.8 | 0.00 | 0.05 | 0.05 | 69 | 1006.8 |
| 20260504023507 | 3 | 245 | 1.6 | 4.8 | 0.00 | 0.05 | 0.05 | 69 | 1006.8 |
| 20260504023024 | 3 | 245 | 1.6 | 4.8 | 0.00 | 0.05 | 0.05 | 68 | 1006.6 |
| 20260504022508 | 3 | 235 | 1.6 | 6.4 | 0.00 | 0.05 | 0.05 | 68 | 1006.7 |
| 20260504022009 | 3 | 252 | 1.6 | 6.4 | 0.00 | 0.05 | 0.05 | 68 | 1006.7 |
| 20260504021524 | 3 | 218 | 1.6 | 4.8 | 0.00 | 0.05 | 0.05 | 67 | 1006.7 |
| 20260504021009 | 3 | 243 | 1.6 | 4.8 | 0.00 | 0.05 | 0.05 | 66 | 1006.8 |
| 20260504020506 | 4 | 242 | 1.6 | 4.8 | 0.00 | 0.05 | 0.05 | 67 | 1006.8 |
| 20260504020025 | 4 | 246 | 0.0 | 8.0 | 0.00 | 0.05 | 0.05 | 65 | 1006.8 |
| 20260504015511 | 4 | 246 | 1.6 | 8.0 | 0.00 | 0.05 | 0.05 | 66 | 1006.7 |
| 20260504015012 | 4 | 246 | 1.6 | 6.4 | 0.00 | 0.05 | 0.05 | 66 | 1006.7 |
| 20260504014531 | 4 | 250 | 1.6 | 6.4 | 0.00 | 0.05 | 0.05 | 65 | 1006.7 |
| 20260504014010 | 5 | 234 | 1.6 | 6.4 | 0.00 | 0.08 | 0.05 | 64 | 1006.7 |
| 20260504013507 | 5 | 245 | 1.6 | 6.4 | 0.00 | 0.08 | 0.05 | 64 | 1006.7 |
| 20260504013026 | 5 | 249 | 1.6 | 6.4 | 0.00 | 0.08 | 0.05 | 63 | 1006.6 |
| 20260504012507 | 5 | 246 | 1.6 | 4.8 | 0.00 | 0.08 | 0.05 | 63 | 1006.6 |
| 20260504012010 | 5 | 232 | 0.0 | 6.4 | 0.00 | 0.08 | 0.05 | 60 | 1006.5 |
| 20260504011526 | 5 | 277 | 0.0 | 6.4 | 0.00 | 0.10 | 0.05 | 60 | 1006.4 |
| 20260504011011 | 5 | 186 | 0.0 | 6.4 | 0.00 | 0.10 | 0.05 | 60 | 1006.3 |
| 20260504010512 | 5 | 248 | 0.0 | 4.8 | 0.00 | 0.10 | 0.05 | 60 | 1006.2 |
| 20260504010026 | 5 | 213 | 1.6 | 16.1 | 0.00 | 0.10 | 0.05 | 60 | 1006.1 |
| 20260504005508 | 5 | 259 | 3.2 | 16.1 | 0.00 | 0.13 | 0.05 | 59 | 1006.1 |
| 20260504005009 | 6 | 255 | 0.0 | 4.8 | 0.00 | 0.13 | 0.05 | 58 | 1006.1 |
| 20260504004529 | 6 | 276 | 0.0 | 4.8 | 0.00 | 0.15 | 0.05 | 58 | 1006.0 |
| 20260504004010 | 6 | 222 | 0.0 | 4.8 | 0.00 | 0.15 | 0.05 | 59 | 1005.9 |
| 20260504003510 | 6 | 254 | 1.6 | 4.8 | 0.00 | 0.15 | 0.05 | 59 | 1005.8 |
| 20260504003028 | 6 | 257 | 1.6 | 4.8 | 0.00 | 0.15 | 0.05 | 57 | 1005.7 |
| 20260504002508 | 6 | 254 | 0.0 | 11.3 | 0.00 | 0.15 | 0.05 | 57 | 1005.7 |
| 20260504002008 | 6 | 280 | 1.6 | 11.3 | 0.00 | 0.15 | 0.05 | 56 | 1005.6 |
| 20260504001527 | 7 | 250 | 1.6 | 6.4 | 0.00 | 0.15 | 0.05 | 56 | 1005.5 |
| 20260504001010 | 7 | 308 | 1.6 | 6.4 | 0.00 | 0.15 | 0.05 | 54 | 1005.4 |
| 20260504000510 | 7 | 296 | 0.0 | 4.8 | 0.00 | 0.15 | 0.05 | 53 | 1005.3 |
| 20260504000027 | 7 | 294 | 0.0 | 4.8 | 0.00 | 0.15 | 0.05 | 52 | 1005.2 |
| 20260503235507 | 7 | 284 | 1.6 | 8.0 | 0.00 | 0.18 | 0.05 | 52 | 1005.1 |
| 20260503235007 | 8 | 333 | 0.0 | 17.7 | 0.00 | 0.18 | 0.05 | 51 | 1005.0 |
| 20260503234532 | 8 | 311 | 3.2 | 17.7 | 0.00 | 0.18 | 0.05 | 50 | 1004.9 |
| 20260503234008 | 8 | 262 | 6.4 | 14.5 | 0.00 | 0.18 | 0.05 | 49 | 1004.9 |
| 20260503233508 | 8 | 338 | 4.8 | 16.1 | 0.00 | 0.18 | 0.05 | 50 | 1004.7 |
| 20260503233028 | 8 | 308 | 1.6 | 16.1 | 0.00 | 0.18 | 0.05 | 47 | 1004.7 |
| 20260503232509 | 8 | 334 | 4.8 | 17.7 | 0.00 | 0.18 | 0.05 | 46 | 1004.5 |